GSAT-30

Last updated on Thu Nov 21 2024 00:02:44 GMT+0000 (Coordinated Universal Time)

1 45026U 20005A 24325.53983764 -.00000164 00000+0 00000+0 0 9995 2 45026 0.0697 100.9478 0001693 115.6004 120.8450 1.00270642 17758
UTC large
Height (km)
Speed (km/s)
/
Latitude / Longitude
Inclination (degrees)
Orbital Period (minutes)
Azimuth
Elevation
Range (km)
Doppler Factor

Next 0 passes for location: London (51.5072 / 0.1276)

Sorry there are no passes over London.